Location: Peterborough
(44.3091°N, 78.3197°W)
Time: 15:44:22
(UTC-04:00)

Transit 2A - Pass Details

Date: 24 March 2023
Orbit: 591 x 964 km, 66.7° (Epoch: 04 June)

Event Time Altitude Azimuth Distance (km) Brightness Sun altitude
Rises 16:46:51 0° 315° (NW) 3,652 9.7 27.5°
Reaches altitude 10° 16:50:11 10° 298° (WNW) 2,706 9.4 26.9°
Maximum altitude 16:54:24 19° 257° (WSW) 2,117 10.4 26.3°
Drops below altitude 10° 16:58:32 10° 215° (SW) 2,642 9.9 25.6°
Sets 17:01:46 0° 198° (SSW) 3,535 10.0 25.1°
